Zurück zum Katalog

SL-8 DEB *

AktivLEO
NORAD 3965·DEBRIS·🇷🇺 Russia

Gestartet Mar 15, 1965 von Baikonur Cosmodrome

Loading…

Nächste Überflüge (nächste 24 Stunden)

TLE

AktuellSource: Space-Track

Epoche: Sep 14, 2026, 04:05 UTC

1 03965U 65020EY  26257.17014900  .00000277  00000-0  28504-2 0  9997
2 03965  56.2964 176.3289 0270605  41.6657  99.2251 12.27698516760291

Verfolge SL-8 DEB * in Echtzeit mit AllMySat

Download on the App Store